TimeCST,TemperatureF,Dew PointF,Humidity,Sea Level PressureIn,VisibilityMPH,Wind Direction,Wind SpeedMPH,Gust SpeedMPH,PrecipitationIn,Events,Conditions,WindDirDegrees,DateUTC
12:15 AM,64.4,57.2,77,29.81,10.0,South,5.8,-,N/A,,Mostly Cloudy,180,2013-01-30 06:15:00
12:35 AM,66.2,57.2,73,29.80,10.0,South,5.8,-,N/A,,Overcast,170,2013-01-30 06:35:00
12:55 AM,66.2,57.2,73,29.79,10.0,South,10.4,16.1,N/A,,Overcast,190,2013-01-30 06:55:00
1:15 AM,66.2,59.0,78,29.77,10.0,South,6.9,-,N/A,,Overcast,180,2013-01-30 07:15:00
1:35 AM,64.4,59.0,83,29.76,10.0,South,3.5,-,N/A,,Mostly Cloudy,180,2013-01-30 07:35:00
1:55 AM,66.2,59.0,78,29.76,10.0,South,4.6,-,N/A,,Overcast,180,2013-01-30 07:55:00
2:15 AM,66.2,59.0,78,29.75,10.0,South,8.1,-,N/A,,Overcast,170,2013-01-30 08:15:00
2:35 AM,66.2,59.0,78,29.74,10.0,South,6.9,-,N/A,Rain,Light Rain,180,2013-01-30 08:35:00
2:55 AM,66.2,59.0,78,29.73,10.0,SW,4.6,-,N/A,,Overcast,230,2013-01-30 08:55:00
3:15 AM,66.2,59.0,78,29.71,10.0,SSE,3.5,-,N/A,,Overcast,160,2013-01-30 09:15:00
3:35 AM,66.2,60.8,83,29.70,10.0,SSE,3.5,-,N/A,,Overcast,150,2013-01-30 09:35:00
3:55 AM,66.2,60.8,83,29.68,10.0,South,6.9,18.4,N/A,,Overcast,190,2013-01-30 09:55:00
4:15 AM,66.2,60.8,83,29.67,10.0,SSW,8.1,-,N/A,Rain,Light Rain,210,2013-01-30 10:15:00
4:35 AM,64.4,62.6,94,29.66,7.0,SSW,9.2,17.3,0.04,Rain,Heavy Rain,200,2013-01-30 10:35:00
4:55 AM,66.2,60.8,83,29.63,10.0,South,8.1,-,N/A,,Overcast,190,2013-01-30 10:55:00
5:15 AM,68.0,60.8,78,29.62,10.0,SSW,16.1,24.2,N/A,,Overcast,200,2013-01-30 11:15:00
5:35 AM,69.8,60.8,73,29.62,10.0,SSW,9.2,17.3,N/A,,Overcast,210,2013-01-30 11:35:00
5:55 AM,69.8,60.8,73,29.61,10.0,South,13.8,25.3,N/A,Rain,Light Rain,190,2013-01-30 11:55:00
6:15 AM,71.6,62.6,73,29.62,10.0,SSW,12.7,29.9,N/A,,Overcast,200,2013-01-30 12:15:00
6:35 AM,69.8,62.6,78,29.62,10.0,SSW,13.8,24.2,N/A,Rain,Light Rain,200,2013-01-30 12:35:00
6:55 AM,69.8,62.6,78,29.63,10.0,SSW,9.2,25.3,N/A,Rain,Light Rain,210,2013-01-30 12:55:00
7:15 AM,69.8,62.6,78,29.62,10.0,SSW,11.5,17.3,N/A,,Overcast,200,2013-01-30 13:15:00
7:35 AM,69.8,62.6,78,29.61,10.0,SSE,8.1,18.4,N/A,Rain,Light Rain,150,2013-01-30 13:35:00
7:55 AM,60.8,59.0,94,29.68,5.0,Calm,Calm,-,0.05,Rain,Rain,0,2013-01-30 13:55:00
8:15 AM,60.8,59.0,94,29.68,2.0,Calm,Calm,-,0.15,Rain,Heavy Rain,0,2013-01-30 14:15:00
8:35 AM,59.0,57.2,94,29.69,5.0,SSE,3.5,-,0.23,Rain,Heavy Rain,160,2013-01-30 14:35:00
8:55 AM,57.2,57.2,100,29.67,4.0,ESE,3.5,-,0.03,Rain,Heavy Rain,120,2013-01-30 14:55:00
9:15 AM,57.2,57.2,100,29.66,2.0,Calm,Calm,-,0.10,Rain,Heavy Rain,0,2013-01-30 15:15:00
9:35 AM,57.2,57.2,100,29.66,4.0,Calm,Calm,-,0.16,Rain,Heavy Rain,0,2013-01-30 15:35:00
9:55 AM,57.2,57.2,100,29.65,10.0,Calm,Calm,-,N/A,Rain,Light Rain,0,2013-01-30 15:55:00
10:15 AM,57.2,57.2,100,29.65,4.0,Calm,Calm,-,0.02,Rain,Rain,0,2013-01-30 16:15:00
10:35 AM,57.2,57.2,100,29.62,2.0,Calm,Calm,-,0.10,Rain,Heavy Rain,0,2013-01-30 16:35:00
10:55 AM,-9999,-9999,N/A,29.63,2.0,Calm,Calm,-,0.04,Rain,Heavy Rain,0,2013-01-30 16:55:00
11:15 AM,57.2,57.2,100,29.61,3.0,Calm,Calm,-,0.13,Rain,Heavy Rain,0,2013-01-30 17:15:00
11:35 AM,57.2,57.2,100,29.60,4.0,Calm,Calm,-,0.18,Rain,Heavy Rain,0,2013-01-30 17:35:00
11:55 AM,57.2,57.2,100,29.58,3.0,Calm,Calm,-,0.05,Rain,Heavy Rain,0,2013-01-30 17:55:00
12:15 PM,57.2,57.2,100,29.57,3.0,Calm,Calm,-,0.12,Rain,Heavy Rain,0,2013-01-30 18:15:00
12:35 PM,57.2,55.4,94,29.56,3.0,South,3.5,-,0.19,Rain,Heavy Rain,190,2013-01-30 18:35:00
12:55 PM,57.2,57.2,100,29.54,4.0,Calm,Calm,-,0.04,Rain,Heavy Rain,0,2013-01-30 18:55:00
1:15 PM,57.2,57.2,100,29.53,10.0,South,5.8,-,0.08,Rain,Rain,170,2013-01-30 19:15:00
1:35 PM,57.2,57.2,100,29.51,7.0,South,3.5,-,0.13,Rain,Rain,170,2013-01-30 19:35:00
1:55 PM,57.2,57.2,100,29.51,7.0,Calm,Calm,-,0.02,Rain,Rain,0,2013-01-30 19:55:00
2:15 PM,57.2,57.2,100,29.51,10.0,SSW,9.2,-,0.04,Rain,Rain,200,2013-01-30 20:15:00
2:35 PM,57.2,57.2,100,29.49,7.0,South,8.1,-,0.08,Rain,Heavy Rain,190,2013-01-30 20:35:00
3:15 PM,57.2,55.4,94,29.51,7.0,WSW,5.8,-,0.10,Rain,Heavy Rain,240,2013-01-30 21:15:00
3:35 PM,55.4,50.0,82,29.55,10.0,WSW,8.1,19.6,0.13,Rain,Rain,250,2013-01-30 21:35:00
3:55 PM,53.6,46.4,77,29.56,10.0,SW,8.1,-,0.02,Rain,Rain,220,2013-01-30 21:55:00
4:15 PM,53.6,48.2,82,29.54,7.0,Calm,Calm,-,0.06,Rain,Rain,0,2013-01-30 22:15:00
4:35 PM,51.8,46.4,82,29.56,10.0,SSW,11.5,17.3,0.07,Rain,Light Rain,210,2013-01-30 22:35:00
4:55 PM,51.8,46.4,82,29.51,10.0,SSW,4.6,-,N/A,Rain,Light Rain,200,2013-01-30 22:55:00
5:15 PM,51.8,46.4,82,29.49,10.0,South,8.1,-,N/A,,Overcast,190,2013-01-30 23:15:00
5:35 PM,51.8,48.2,88,29.51,1.0,SSW,8.1,-,N/A,,Overcast,200,2013-01-30 23:35:00
5:55 PM,51.8,48.2,88,29.53,10.0,South,13.8,19.6,N/A,Rain,Light Rain,190,2013-01-30 23:55:00
6:15 PM,51.8,46.4,82,29.50,10.0,South,12.7,24.2,N/A,Rain,Light Rain,180,2013-01-31 00:15:00
6:35 PM,50.0,46.4,87,29.51,10.0,North,-9999.0,-,N/A,Rain,Rain,0,2013-01-31 00:35:00
6:55 PM,50.0,46.4,87,29.52,10.0,SSW,8.1,18.4,N/A,Rain,Light Rain,210,2013-01-31 00:55:00
7:15 PM,50.0,46.4,87,29.49,10.0,SSW,9.2,-,N/A,,Light Drizzle,200,2013-01-31 01:15:00
7:35 PM,50.0,46.4,87,29.50,10.0,South,11.5,19.6,N/A,,Light Drizzle,180,2013-01-31 01:35:00
7:55 PM,50.0,46.4,87,29.52,10.0,SSW,9.2,20.7,N/A,Rain,Light Rain,210,2013-01-31 01:55:00
8:15 PM,48.2,46.4,93,29.51,7.0,North,-9999.0,-,N/A,Rain,Rain,0,2013-01-31 02:15:00
8:35 PM,48.2,46.4,93,29.52,7.0,Calm,Calm,-,0.04,Rain,Heavy Rain,260,2013-01-31 02:35:00
8:55 PM,48.2,42.8,82,29.55,7.0,Calm,Calm,40.3,0.01,Rain,Rain,300,2013-01-31 02:55:00
9:15 PM,46.4,39.2,76,29.55,10.0,West,16.1,34.5,0.01,Rain,Light Rain,280,2013-01-31 03:15:00
9:35 PM,44.6,39.2,81,29.56,10.0,WNW,12.7,28.8,0.01,Rain,Light Rain,290,2013-01-31 03:35:00
9:55 PM,44.6,39.2,81,29.57,10.0,West,12.7,21.9,N/A,,Light Drizzle,270,2013-01-31 03:55:00
10:15 PM,44.6,39.2,81,29.59,10.0,North,-9999.0,-,N/A,Rain,Light Rain,0,2013-01-31 04:15:00
10:35 PM,42.8,39.2,87,29.62,7.0,NW,6.9,19.6,N/A,Rain,Rain,310,2013-01-31 04:35:00
10:55 PM,41.0,39.2,93,29.65,5.0,WNW,10.4,19.6,0.01,Rain,Rain,300,2013-01-31 04:55:00
11:15 PM,39.2,37.4,93,29.67,5.0,West,10.4,25.3,0.02,Rain,Light Rain,280,2013-01-31 05:15:00
11:35 PM,39.2,35.6,87,29.69,10.0,West,8.1,-,0.02,Rain,Light Rain,270,2013-01-31 05:35:00
11:55 PM,39.2,33.8,81,29.72,10.0,North,-9999.0,-,N/A,Rain,Light Rain,0,2013-01-31 05:55:00